TimeEDT,TemperatureF,Dew PointF,Humidity,Sea Level PressureIn,VisibilityMPH,Wind Direction,Wind SpeedMPH,Gust SpeedMPH,PrecipitationIn,Events,Conditions,WindDirDegrees,DateUTC
12:53 AM,66.9,64.9,93,30.12,7.0,NNE,6.9,-,0.00,,Mostly Cloudy,30,2013-08-17 04:53:00
1:53 AM,66.9,64.9,93,30.11,7.0,NE,5.8,-,N/A,,Overcast,40,2013-08-17 05:53:00
2:53 AM,66.0,64.0,93,30.10,10.0,NNE,6.9,-,N/A,,Overcast,30,2013-08-17 06:53:00
3:53 AM,66.0,64.0,93,30.09,7.0,NE,4.6,-,0.00,Rain,Light Rain,40,2013-08-17 07:53:00
4:05 AM,66.2,64.4,94,30.10,10.0,NE,6.9,-,0.00,,Overcast,40,2013-08-17 08:05:00
4:53 AM,66.0,64.0,93,30.09,9.0,NNE,8.1,-,0.03,,Overcast,30,2013-08-17 08:53:00
5:33 AM,66.2,64.4,94,30.11,9.0,NE,5.8,-,N/A,,Overcast,40,2013-08-17 09:33:00
5:53 AM,66.0,64.0,93,30.09,9.0,NNE,6.9,-,N/A,,Overcast,30,2013-08-17 09:53:00
6:53 AM,66.0,64.0,93,30.09,10.0,NNE,9.2,-,N/A,,Overcast,30,2013-08-17 10:53:00
7:11 AM,66.2,64.4,94,30.11,8.0,NNE,8.1,-,N/A,,Overcast,20,2013-08-17 11:11:00
7:53 AM,66.9,64.9,93,30.11,7.0,NNE,6.9,-,N/A,,Overcast,30,2013-08-17 11:53:00
8:04 AM,66.2,64.4,94,30.12,7.0,NNE,5.8,-,N/A,,Overcast,30,2013-08-17 12:04:00
8:34 AM,66.2,66.2,100,30.12,2.0,NNE,6.9,-,0.01,Rain,Light Rain,30,2013-08-17 12:34:00
8:53 AM,68.0,66.0,93,30.10,3.0,NNE,8.1,-,0.01,,Overcast,30,2013-08-17 12:53:00
9:53 AM,69.1,66.9,93,30.12,10.0,NNE,11.5,-,N/A,,Overcast,30,2013-08-17 13:53:00
10:53 AM,71.1,68.0,90,30.12,10.0,NNE,8.1,-,N/A,,Overcast,30,2013-08-17 14:53:00
11:08 AM,71.6,69.8,94,30.14,1.8,NNE,5.8,-,N/A,,Overcast,30,2013-08-17 15:08:00
11:28 AM,71.6,69.8,94,30.14,2.0,NNE,9.2,-,0.01,Rain,Light Rain,30,2013-08-17 15:28:00
11:43 AM,69.8,69.8,100,30.14,1.2,NNE,6.9,-,0.03,Rain,Light Rain,30,2013-08-17 15:43:00
11:47 AM,71.6,69.8,94,30.14,0.8,NNE,8.1,-,0.06,Rain,Rain,30,2013-08-17 15:47:00
11:53 AM,71.1,69.1,93,30.12,0.8,NE,6.9,-,0.09,Rain,Rain,40,2013-08-17 15:53:00
12:01 PM,71.6,69.8,94,30.13,1.2,NNE,8.1,-,0.04,Rain,Rain,30,2013-08-17 16:01:00
12:20 PM,71.6,69.8,94,30.13,1.5,NNE,8.1,-,0.15,Rain,Rain,30,2013-08-17 16:20:00
12:34 PM,71.6,69.8,94,30.13,2.0,NNE,6.9,-,0.19,Rain,Light Rain,30,2013-08-17 16:34:00
12:42 PM,71.6,69.8,94,30.13,1.2,NE,5.8,-,0.27,Rain,Heavy Rain,40,2013-08-17 16:42:00
12:51 PM,71.6,69.8,94,30.13,0.5,NE,6.9,-,0.52,Fog-Rain,Heavy Rain,40,2013-08-17 16:51:00
12:53 PM,71.1,69.1,93,30.12,0.5,NE,6.9,-,0.54,Fog-Rain,Heavy Rain,40,2013-08-17 16:53:00
1:01 PM,71.6,69.8,94,30.13,0.8,NE,8.1,-,0.17,Rain,Heavy Rain,40,2013-08-17 17:01:00
1:22 PM,71.6,69.8,94,30.13,1.8,North,9.2,-,0.41,Rain,Light Rain,360,2013-08-17 17:22:00
1:26 PM,71.6,69.8,94,30.13,3.0,North,9.2,-,0.42,Rain,Light Rain,360,2013-08-17 17:26:00
1:34 PM,71.6,69.8,94,30.12,5.0,North,11.5,-,0.42,Rain,Light Rain,10,2013-08-17 17:34:00
1:53 PM,72.0,70.0,93,30.10,1.8,NNE,10.4,-,0.49,Rain,Light Rain,30,2013-08-17 17:53:00
2:03 PM,71.6,69.8,94,30.11,1.5,NNE,11.5,-,0.05,Rain,Light Rain,30,2013-08-17 18:03:00
2:18 PM,71.6,71.6,100,30.11,0.8,NNE,11.5,-,0.21,Rain,Rain,20,2013-08-17 18:18:00
2:23 PM,71.6,69.8,94,30.11,2.5,NNE,10.4,-,0.21,Rain,Light Rain,30,2013-08-17 18:23:00
2:36 PM,71.6,69.8,94,30.11,1.2,NNE,9.2,-,0.31,Rain,Rain,20,2013-08-17 18:36:00
2:53 PM,72.0,71.1,97,30.09,0.5,NNE,11.5,-,0.55,Fog-Rain,Heavy Rain,20,2013-08-17 18:53:00
3:01 PM,73.4,71.6,94,30.10,1.0,NNE,11.5,-,0.05,Rain,Light Rain,30,2013-08-17 19:01:00
3:27 PM,73.4,71.6,94,30.09,2.0,NNE,10.4,-,0.06,Rain,Light Rain,30,2013-08-17 19:27:00
3:30 PM,73.4,71.6,94,30.09,2.0,NNE,9.2,-,0.06,Rain,Light Rain,30,2013-08-17 19:30:00
3:53 PM,75.0,73.0,94,30.07,2.0,NNE,9.2,-,0.07,Rain,Light Rain,30,2013-08-17 19:53:00
3:59 PM,75.2,73.4,94,30.09,7.0,NNE,6.9,-,0.00,,Overcast,30,2013-08-17 19:59:00
4:07 PM,75.2,73.4,94,30.09,9.0,NNE,8.1,-,0.00,,Overcast,30,2013-08-17 20:07:00
4:37 PM,75.2,73.4,94,30.09,10.0,NE,5.8,-,0.00,,Overcast,50,2013-08-17 20:37:00
4:53 PM,75.9,73.0,91,30.07,10.0,ENE,4.6,-,0.00,,Overcast,60,2013-08-17 20:53:00
5:39 PM,77.0,73.4,89,30.09,10.0,ENE,3.5,-,0.00,,Overcast,60,2013-08-17 21:39:00
5:45 PM,77.0,73.4,89,30.09,10.0,NE,4.6,-,0.00,,Overcast,50,2013-08-17 21:45:00
5:53 PM,75.9,73.0,91,30.08,10.0,NE,3.5,-,0.00,,Overcast,50,2013-08-17 21:53:00
6:01 PM,75.2,73.4,94,30.09,10.0,ENE,4.6,-,N/A,,Overcast,60,2013-08-17 22:01:00
6:08 PM,75.2,73.4,94,30.09,10.0,NE,3.5,-,N/A,,Overcast,50,2013-08-17 22:08:00
6:53 PM,75.9,73.0,91,30.08,10.0,NNE,3.5,-,N/A,,Overcast,30,2013-08-17 22:53:00
7:39 PM,75.2,73.4,94,30.11,10.0,North,5.8,-,N/A,,Overcast,360,2013-08-17 23:39:00
7:53 PM,75.9,73.0,91,30.09,10.0,NNE,6.9,-,N/A,,Overcast,20,2013-08-17 23:53:00
8:04 PM,75.2,73.4,94,30.11,10.0,NNE,5.8,-,N/A,,Overcast,20,2013-08-18 00:04:00
8:44 PM,75.2,73.4,94,30.11,10.0,Calm,Calm,-,N/A,,Overcast,0,2013-08-18 00:44:00
8:53 PM,75.0,73.0,94,30.10,10.0,Calm,Calm,-,N/A,,Overcast,0,2013-08-18 00:53:00
9:53 PM,73.9,72.0,93,30.11,10.0,Calm,Calm,-,N/A,,Overcast,0,2013-08-18 01:53:00
10:53 PM,73.0,72.0,96,30.12,10.0,Calm,Calm,-,N/A,,Overcast,0,2013-08-18 02:53:00
11:04 PM,73.4,71.6,94,30.14,10.0,Calm,Calm,-,N/A,,Overcast,0,2013-08-18 03:04:00
11:19 PM,73.4,71.6,94,30.14,10.0,ENE,3.5,-,N/A,,Overcast,70,2013-08-18 03:19:00
11:53 PM,73.9,72.0,93,30.12,10.0,Calm,Calm,-,N/A,,Overcast,0,2013-08-18 03:53:00